Regional Weather Roundup
Issued by NWS

Home | Current Version | Previous Version | Text Only | Print | Product List | Glossary On
Versions: 1 2 3 4 5 6 7 8 9 10 11 12 13 14 15 16 17 18 19 20 21 22 23 24 25 26 27 28 29 30 31 32 33 34 35 36 37 38 39 40 41 42 43 44 45 46 47 48 49 50
000
ASUS44 KEWX 032203
RWRTX
SOUTH TEXAS REGIONAL WEATHER ROUNDUP
NATIONAL WEATHER SERVICE AUSTIN/SAN ANTONIO TX
500 PM CDT MON AUG 03 2015

NOTE: "FAIR" INDICATED FEW OR NO CLOUDS BELOW 12,000 FEET WITH NO
SIGNIFICANT WEATHER AND/OR OBSTRUCTIONS TO VISIBILITY.

* - THESE STATIONS ARE NOT NWS OR FAA STATIONS...AND ARE NOT SUBJECT
    TO NWS AND FAA QUALITY CONTROL.

TXZ171-172-183>190-032300-
TEXAS HILL COUNTRY AND EDWARDS PLATEAU

CITY           SKY/WX    TMP DP  RH WIND       PRES   REMARKS
JUNCTION       SUNNY     97  60  29 S12G18    29.90F HX  97
*LLANO         SUNNY     99  61  28 SE8       29.92S HX  99
BURNET         SUNNY     96  57  27 E7        29.92F HX  95
*HORSESHOE BAY SUNNY     98  58  25 E6        29.90F HX  97
*KERRVILLE     MOSUNNY   97  61  30 E9        29.92F HX  97
*FREDERICKSBRG MOSUNNY   94  58  29 E7        29.93F HX  93
*ROCKSPRINGS   MOSUNNY   95  61  31 SE9       29.96F HX  95
*BOERNE STAGE  MOSUNNY   95  57  28 E9        29.91F HX  94
*CASTROVILLE   SUNNY     99  56  24 SE9       29.88F HX  97
HONDO          SUNNY     98  60  28 SE10G16   29.88F HX  98
*UVALDE        SUNNY     97  62  31 E10G18    29.86F HX  97
DEL RIO        SUNNY    101  59  24 SE14      29.82F HX 101
LAUGHLIN AFB   SUNNY    100  61  27 SE14G20   29.84F HX 100
CARRIZO SPRGS  SUNNY     99  61  28 E8G17     29.82F HX  99
$$

TXZ173-191>194-202-209-217>225-228-032300-
CENTRAL AND SOUTH CENTRAL TEXAS

CITY           SKY/WX    TMP DP  RH WIND       PRES   REMARKS
GEORGETOWN     MOSUNNY   99  57  25 E8        29.88S HX  97
AUSTIN/BERGSTM MOSUNNY   96  61  31 E7        29.86F HX  96
AUSTIN/MABRY   SUNNY     98  60  28 VRB7      29.88F HX  98
*AUSTIN/EXEC   NOT AVBL
*LAGO VISTA    SUNNY     97  55  24 E9G20     29.92F HX  95
SAN MARCOS     SUNNY     97  61  30 E14       29.87F HX  97
NEW BRAUNFELS  SUNNY     99  59  26 VRB6      29.85F HX  99
RANDOLPH AFB   SUNNY     96  60  30 SE7       29.87F HX  96
PT SAN ANTONIO SUNNY     97  60  28 NE10      29.85F HX  97
SAN ANTONIO    MOSUNNY   98  58  26 NE13G20   29.87F HX  97
STINSON FIELD  SUNNY     97  60  29 VRB7      29.84F HX  97
*PLEASANTON    MOSUNNY   99  61  27 E9        29.85F HX 100
*LA GRANGE     SUNNY     97  65  34 CALM      29.85F HX  99
*GIDDINGS      MOSUNNY   95  62  33 SE8       29.91F HX  95
*GONZALES      CLOUDY    98  61  29 S5        29.85F HX  98
$$

TXZ163>164-176>182-195>201-210>213-226-227-235-032300-
SOUTHEAST TEXAS

CITY           SKY/WX    TMP DP  RH WIND       PRES   REMARKS
COLLEGE STN    MOSUNNY   97  60  29 E9        29.87F HX  97
*BRYAN         MOSUNNY   97  62  31 SE5       29.88F HX  98
*CALDWELL      SUNNY     97  55  24 E9        29.91F HX  95
*CROCKETT        N/A    100  63  28 E5        29.92S HX 102
*BRENHAM       SUNNY     97  63  32 SE6       29.88F HX  98
HUNTSVILLE     SUNNY     98  60  28 E6        29.88F HX  98
CONROE         SUNNY     95  59  30 SE10      29.88F HX  94
HOUSTON BUSH   MOSUNNY   95  65  37 NE10      29.86F HX  97
HOUSTON HOBBY  MOSUNNY   94  70  45 SE10G20   29.86F HX 100
*HOUSTON SW AP PTSUNNY   91  74  57 SE8G20    29.88S HX 100
PEARLAND       SUNNY     94  71  47 SE13G24   29.89S HX 101
HOUSTON HOOKS  MOSUNNY   96  65  35 VRB6      29.86F HX  98
ELLINGTON FLD  MOSUNNY   93  64  38 SE8       29.89S HX  95
SUGAR LAND     PTSUNNY   98  68  37 SE13      29.85F HX 103
*HOUSTON EXEC  NOT AVBL
*CLEVELAND MUN SUNNY     97  67  37 SE3       29.89S HX 101
*WHARTON       MOSUNNY   96  69  41 E12       29.86F HX 102
*COLUMBUS      FAIR      95  66  38 SE6       29.86F HX  98
*EAGLE LAKE    PTCLDY    96  66  36 E5        29.86S HX  99
$$

TXZ214>216-236>238-032300-
THE UPPER TEXAS COAST

CITY           SKY/WX    TMP DP  RH WIND       PRES   REMARKS
*ORANGE        PTSUNNY   94  56  27 CALM      29.89S HX  93
PORT ARTHUR    MOSUNNY   96  65  35 SE9       29.87S HX  98
GALVESTON      MOSUNNY   91  76  61 S15       29.90F HX 103
ANGLETON       MOSUNNY   93  74  53 S16       29.88S HX 103
*BAY CITY      MOSUNNY   92  73  53 SE10      29.88S HX  99
PALACIOS       SUNNY     90  72  55 S14       29.88F HX  97
$$

TXZ229>234-239>247-032300-
TEXAS COASTAL BEND AND RIO GRANDE PLAINS

CITY           SKY/WX    TMP DP  RH WIND       PRES   REMARKS
VICTORIA       SUNNY     94  72  48 S15G22    29.86F HX 102
*BEEVILLE      HAZE      94  76  55 SE14      29.85F VSB 1/2 HX 106
ROCKPORT       MOSUNNY   91  76  61 SE14      29.86F HX 103
*PORT ARANSAS  SUNNY     88  77  69 SE13      29.87F HX 100
*PORT LAVACA   MOSUNNY   92  71  50 SE10G18   29.87F HX  99
*INGLESIDE     MOSUNNY   93  72  50 SE15G23   29.87S HX 101
CORPUS CHRISTI PTSUNNY   89  75  63 SE14      29.86S HX  99
CORPUS NAS     MOSUNNY   88  76  67 SE17      29.86F HX  99
*ROBSTOWN      PTSUNNY   88  78  73 SE8       29.86F HX 102
ALICE          MOSUNNY   95  75  52 E18G25    29.83F HX 107
KINGSVILLE NAS PTSUNNY   94  79  61 E17G24    29.84F HX 111
COTULLA        MOSUNNY  100  63  29 E16G22    29.83F HX 102
*FAITH RANCH     N/A    102  57  22 E10G17    29.82F HX 101
LAREDO         MOSUNNY  102  60  25 VRB7      29.82F HX 102
$$

TXZ248>255-032300-
DEEP SOUTH TEXAS

CITY           SKY/WX    TMP DP  RH WIND       PRES   REMARKS
BROWNSVILLE    MOSUNNY   90  75  61 SE18      29.86S HX 100
PORT ISABEL    MOSUNNY   91  76  61 SE16G26   29.85S HX 103
*SOUTH PADRE   SUNNY     90  81  74 SE10      29.87S HX 108
HARLINGEN      PTSUNNY   98  71  41 SE15G28   29.82F HX 106
*HEBBRONVILLE    N/A     99  59  26 E6        29.84F HX  99
MCALLEN        LGT RAIN 100  69  36 SE20      29.81F HX 106
*WESLACO       SUNNY     99  64  30 SE15G24   29.82F HX 101
FALFURRIAS     MOSUNNY   94  74  53 E16G24    29.81F HX 104
EDINBURG       MOSUNNY  100  65  31 SE14G22   29.81F HX 103
*ZAPATA        MOSUNNY  102  60  25 SE3       29.79F HX 103
$$

TXZ213>215-236>238-242>244-246-247-251-254-255-032300-
CMAN STATIONS

STATION/POSITION TIME  TEMP    WIND        PRES    WAVE
                       AIR SEA DIR/SP/G            HT/PER
                 (UTC) (F)     (DEG/KT/KT) (MB)    (FT/S)
$$

GMZ080-GMZ150>470-032300-
OFFSHORE BUOY REPORTS

STATION/POSITION TIME  TEMP    WIND        PRES    WAVE
                       AIR SEA DIR/SP/G            HT/PER
                 (UTC) (F)     (DEG/KT/KT) (MB)    (FT/S)
$$


USA.gov is the U.S. government's official web portal to all federal, state and local government web resources and services.